This demonstration page uses our WeatherBlox Daily Observations layout. Learn more.

Left ArrowRight Arrow

31.84235, -102.49876

Hourly Observations for March 20, 2017

Temp ( °F °C ) Dew Point ( °F °C ) Humidity (%) Winds ( mph kmh ) Pressure ( in mb ) Visibility ( mi km ) Precip ( " mm )
12:53 am 00:53 Clear 70 21.1 54 12.2 57 57 S 16 26 30.01 1016 10 16 0.00 0.00
1:53 am 01:53 Clear 69 20.6 53 11.7 57 57 S 15 24 29.99 1016 10 16 0.00 0.00
2:53 am 02:53 Clear 68 20 51 10.6 55 55 S 16 26 29.98 1015 10 16 0.00 0.00
3:53 am 03:53 Clear 66 18.9 51 10.6 59 59 S 12 19 29.96 1015 10 16 0.00 0.00
4:53 am 04:53 Clear 64 17.8 50 10 60 60 SSW 10 17 29.96 1015 10 16 0.00 0.00
5:53 am 05:53 Clear 63 17.2 49 9.4 60 60 SSW 10 17 29.97 1015 10 16 0.00 0.00
6:53 am 06:53 Clear 63 17.2 47 8.3 56 56 SSW 12 19 29.97 1015 10 16 0.00 0.00
7:53 am 07:53 Sunny 63 17.2 47 8.3 56 56 S 13 20 29.98 1015 10 16 0.00 0.00
8:53 am 08:53 Sunny 65 18.3 48 8.9 54 54 S 9 15 30.00 1016 10 16 0.00 0.00
9:53 am 09:53 Sunny 70 21.1 47 8.3 44 44 SSW 15 24 30.02 1017 10 16 0.00 0.00
10:53 am 10:53 Sunny 75 23.9 47 8.3 37 37 SSW 14 22 30.01 1016 10 16 0.00 0.00
11:53 am 11:53 Sunny 80 26.7 45 7.2 29 29 SSW 12 19 30.00 1016 10 16 0.00 0.00
12:53 pm 12:53 Sunny 85 29.4 43 6.1 23 23 SW 10 17 29.98 1015 10 16 0.00 0.00
1:53 pm 13:53 Sunny 87 30.6 40 4.4 19 19 W 9 15 29.94 1014 10 16 0.00 0.00
2:53 pm 14:53 Sunny 90 32.2 37 2.8 15 15 SW 3 6 29.91 1013 10 16 0.00 0.00
3:53 pm 15:53 Sunny 92 33.3 36 2.2 14 14 VRB 6 9 29.89 1012 10 16 0.00 0.00
4:53 pm 16:53 Sunny 91 32.8 31 -0.6 12 12 VRB 6 9 29.87 1012 10 16 0.00 0.00
5:53 pm 17:53 Sunny 92 33.3 31 -0.6 11 11 SSW 12 19 29.85 1011 10 16 0.00 0.00
6:53 pm 18:53 Sunny 89 31.7 31 -0.6 12 12 SSW 6 9 29.85 1011 10 16 0.00 0.00
7:53 pm 19:53 Sunny 86 30 36 2.2 17 17 S 14 22 29.87 1011 10 16 0.00 0.00
8:53 pm 20:53 Clear 83 28.3 42 5.6 24 24 S 15 24 29.88 1012 10 16 0.00 0.00
9:53 pm 21:53 Clear 79 26.1 47 8.3 32 32 S 17 28 29.90 1013 10 16 0.00 0.00
10:53 pm 22:53 Clear 76 24.4 51 10.6 42 42 S 18 30 29.91 1013 10 16 0.00 0.00
11:53 pm 23:53 Clear 73 22.8 51 10.6 46 46 S 16 26 29.91 1013 10 16 0.00 0.00

Powered by AerisWeather